Back to catalog

COSMOS 510

AliveMilitaryLEO
NORAD 6123·PAYLOAD·🇷🇺 Russia

Launched Jul 20, 1972 from Plesetsk Cosmodrome

Loading…

Next Passes (next 24 hours)

TLE

FreshSource: Space-Track

Epoch: Sep 14, 2026, 14:23 UTC

1 06123U 72057G   26257.59931981 -.00000011  00000-0  32980-4 0  9999
2 06123  74.0266 294.7514 0008862 187.7677 340.4896 12.41075821453409

Track COSMOS 510 in real time with AllMySat

Download on the App Store